Weather History for Ishigakijima, Japan

Change the Weather History Date:

Saturday, January 11, 2014

  Actual Average Record
Temperature  
Mean Temperature 67 °F -  
Max Temperature 73 °F 68 °F 78 °F (1998)
Min Temperature 61 °F 60 °F 53 °F (1997)
Cooling Degree Days 2    
Growing Degree Days 17 (Base 50)    
Moisture  
Dew Point 52 °F    
Average Humidity 50    
Maximum Humidity 60    
Minimum Humidity 38    
Precipitation  
Precipitation 0.00 in - - ()
Sea Level Pressure  
Sea Level Pressure 30.25 in    
Wind  
Wind Speed 11 mph ()    
Max Wind Speed 15 mph    
Max Gust Speed -    
Visibility 8.9 miles    
Events Rain    
Averages and records for this station are not official NWS values.
T = Trace of Precipitation, MM = Missing Value Source: Averaged Metar Reports

Daily Weather History Graph

Daily Weather History Graph

Search for Another Location

Airport:

Trip Planner

Search our weather history database for the weather conditions in past years. The results will help you decide how hot, cold, wet, or windy it might be!

Date:

Astronomy

Jan. 11, 2014 Rise Set
Actual Time 7:28 AM JST 6:13 PM JST
Civil Twilight 7:04 AM JST 6:38 PM JST
Nautical Twilight 6:36 AM JST 7:06 PM JST
Astronomical Twilight 6:08 AM JST 7:33 PM JST
Moon 2:26 PM JST (1/11) 3:07 AM JST (1/11)
Length of Visible Light 11h 33m
Length of Day
10h 44m
Waxing Gibbous, 78% of the Moon is Illuminated
Jan 11
Waxing Gibbous
Jan 16
Full
Jan 24
Last Quarter
Jan 31
New
Feb 7
First Quarter

Hourly Weather History & Observations

Time (JST) Temp. Dew Point Humidity Pressure Visibility Wind Dir Wind Speed Gust Speed Precip Events Conditions
12:00 AM 64 °F 51 °F 52% 30.31 in - East 13.8 mph - -  
1:00 AM 64 °F 51 °F 52% 30.29 in - East 13.8 mph - -  
2:00 AM 65 °F 51 °F 52% 30.29 in - East 11.5 mph - -  
3:00 AM 65 °F 51 °F 52% 30.27 in 12 mi East 13.8 mph - -   Partly Cloudy
4:00 AM 65 °F 51 °F 50% 30.27 in - East 12.7 mph - -  
5:00 AM 65 °F 53 °F 55% 30.25 in - East 12.7 mph - -  
6:00 AM 65 °F 51 °F 52% 30.25 in 12 mi East 11.5 mph - -   Mostly Cloudy
6:00 AM 64.4 °F 50.0 °F 59% 30.24 in 6.2 mi East 13.8 mph - N/A   Partly Cloudy
7:00 AM 63 °F 52 °F 58% 30.28 in - ENE 8.1 mph - -  
7:00 AM 64.4 °F 50.0 °F 59% 30.24 in 6.2 mi East 11.5 mph - N/A   Scattered Clouds
8:00 AM 65 °F 52 °F 54% 30.29 in - East 10.4 mph - -  
8:00 AM 64.4 °F 50.0 °F 59% 30.27 in 6.2 mi East 12.7 mph - N/A   Partly Cloudy
9:00 AM 68 °F 52 °F 45% 30.30 in 22 mi East 11.5 mph - -   Scattered Clouds
9:00 AM 68.0 °F 50.0 °F 52% 30.27 in 6.2 mi East 12.7 mph - N/A   Partly Cloudy
10:00 AM 69 °F 51 °F 42% 30.31 in - East 11.5 mph - -  
10:00 AM 69.8 °F 48.2 °F 46% 30.30 in 6.2 mi East 13.8 mph - N/A   Partly Cloudy
11:00 AM 69 °F 53 °F 45% 30.31 in - East 11.5 mph - -  
11:00 AM 71.6 °F 50.0 °F 46% 30.30 in 6.2 mi East 15.0 mph - N/A   Scattered Clouds
12:00 PM 72 °F 53 °F 40% 30.28 in 19 mi East 12.7 mph - -   Scattered Clouds
12:00 PM 69.8 °F 50.0 °F 49% 30.27 in 6.2 mi East 12.7 mph - N/A   Scattered Clouds
1:00 PM 72 °F 52 °F 38% 30.25 in - East 13.8 mph - -  
1:00 PM 71.6 °F 50.0 °F 46% 30.24 in 6.2 mi East 13.8 mph - N/A   Scattered Clouds
2:00 PM 72 °F 52 °F 38% 30.23 in - ESE 11.5 mph - -  
2:00 PM 71.6 °F 50.0 °F 46% 30.21 in 6.2 mi East 11.5 mph - N/A   Scattered Clouds
3:00 PM 71 °F 53 °F 41% 30.22 in 19 mi East 11.5 mph - -   Scattered Clouds
3:00 PM 71.6 °F 51.8 °F 50% 30.18 in 6.2 mi East 11.5 mph - N/A   Partly Cloudy
4:00 PM 72 °F 52 °F 39% 30.21 in - East 11.5 mph - -  
4:00 PM 71.6 °F 50.0 °F 46% 30.18 in 6.2 mi East 10.4 mph - N/A   Partly Cloudy
5:00 PM 71 °F 54 °F 44% 30.20 in - ESE 11.5 mph - -  
5:00 PM 69.8 °F 51.8 °F 53% 30.18 in 6.2 mi East 10.4 mph - N/A   Partly Cloudy
6:00 PM 69 °F 54 °F 49% 30.21 in 19 mi ESE 12.7 mph - -   Scattered Clouds
6:00 PM 68.0 °F 51.8 °F 56% 30.18 in 6.2 mi ESE 10.4 mph - N/A   Scattered Clouds
7:00 PM 69 °F 56 °F 53% 30.23 in - ESE 12.7 mph - -  
7:00 PM 68.0 °F 53.6 °F 60% 30.21 in 6.2 mi East 10.4 mph - N/A   Mostly Cloudy
8:00 PM 69 °F 55 °F 51% 30.25 in - ESE 11.5 mph - -  
8:00 PM 68.0 °F 53.6 °F 60% 30.21 in 6.2 mi ESE 10.4 mph - N/A   Mostly Cloudy
9:00 PM 69 °F 54 °F 48% 30.25 in 12 mi ESE 11.5 mph - - Rain Light Rain Showers
10:00 PM 69 °F 54 °F 50% 30.26 in - ESE 11.5 mph - -  
11:00 PM 68 °F 54 °F 52% 30.25 in - ESE 12.7 mph - -